Home   Weather   Amsterdam Island   Past weeks

Flag for French Southern Territories Past Weather in Amsterdam Island, French Southern Territories — Yesterday and Last 2 Weeks

Now
63 °F

Mild.


Feels Like: 63 °F
Forecast: 57 / 64 °F
Wind: 26 mph from Northwest

Location: Martin De Vivies Ile Amsterdam

Current Time: May 1, 2017 at 7:32:26 am

Latest Report: May 1, 2017 at 6:00 am


Visibility: N/A

Pressure: 29.80 "Hg

Humidity: 77%

Dew Point: 55 °F

Location of Amsterdam IslandLocation

Past Weather in Amsterdam Island — Graph

°F

Amsterdam Island Temperature Yesterday

Maximum temperature yesterday: 62 °F (at 12:00 pm)
Minimum temperature yesterday: 53 °F (at 12:00 am)
Average temperature yesterday: 58 °F

High & Low Weather Summary for the Past Weeks

 TemperatureHumidityPressure
High71 °F (Apr 25, 12:00 pm)96% (Apr 23, 7:00 am)30.36 "Hg (Apr 23, 7:00 am)
Low50 °F (Apr 29, 3:00 am)53% (Apr 20, 2:00 pm)29.58 "Hg (Apr 24, 3:00 am)
Average63 °F76%30.00 "Hg
* Reported Apr 16 6:00 am — May 1 6:00 am, Amsterdam Island, Weather by CustomWeather, © 2017

Note: Actual official high and low records may vary slightly from our data, if they occured in-between our weather recording intervals... More about our weather records

Advertising

Amsterdam Island Weather History for the Previous 24 Hours

Scroll right to see more
 ConditionsComfort  
Time TempWeatherWind HumidityBarometerVisibility
6:00 am
Mon, May 1
63 °FMild.26 mph77%29.80 "HgN/A
5:00 am61 °FCool.26 mph86%29.82 "HgN/A
4:00 am63 °FMild.28 mph74%29.82 "HgN/A
3:00 am62 °FCool.28 mph67%29.84 "HgN/A
2:00 am62 °FCool.29 mph70%29.86 "HgN/A
1:00 am62 °FCool.23 mph70%29.87 "HgN/A
12:00 am62 °FCool.25 mph68%29.88 "HgN/A
11:00 pm
Sun, Apr 30
62 °FCool.26 mph69%29.88 "HgN/A
10:00 pm62 °FCool.24 mph69%29.89 "HgN/A
9:00 pm61 °FRefreshingly cool.22 mph60%29.89 "HgN/A
8:00 pm60 °FCool.20 mph69%29.89 "HgN/A
7:00 pm60 °FCool.18 mph67%29.90 "HgN/A
6:00 pm59 °FCool.22 mph70%29.90 "HgN/A
5:00 pm59 °FCool.20 mph72%29.88 "HgN/A
4:00 pm60 °FCool.22 mph68%29.88 "HgN/A
3:00 pm60 °FCool.22 mph64%29.87 "HgN/A
2:00 pm60 °FCool.21 mph75%29.87 "HgN/A
1:00 pm61 °FCool.18 mph70%29.88 "HgN/A
12:00 pm62 °FCool.16 mph70%29.90 "HgN/A
11:00 am61 °FCool.13 mph70%29.91 "HgN/A
10:00 am60 °FCool.7 mph77%29.93 "HgN/A
9:00 am61 °FCool.6 mph67%29.94 "HgN/A
8:00 am59 °FCool.5 mph70%29.94 "HgN/A
7:00 am54 °FCool.9 mph79%29.93 "HgN/A
Weather by CustomWeather, © 2017

See weather overviewHow to use our weather pages